Time,TemperatureF,DewpointF,PressureIn,WindDirection,WindDirectionDegrees,WindSpeedMPH,WindSpeedGustMPH,Humidity,HourlyPrecipIn,Conditions,Clouds,dailyrainin,SolarRadiationWatts/m^2,SoftwareType,DateUTC
2013-02-15 00:01:00,29.0,20.0,-100.00,SSW,208,3.0,6.0,69,0.00,,,0.00,0.000000,,2013-02-15 07:01:00,
2013-02-15 00:11:00,29.0,20.0,-100.00,SSW,208,3.0,6.0,69,0.00,,,0.00,0.000000,,2013-02-15 07:11:00,
2013-02-15 00:42:00,29.0,20.0,-100.00,East,96,1.0,6.0,68,0.00,,,0.00,0.000000,,2013-02-15 07:42:00,
2013-02-15 00:52:00,29.0,20.0,-100.00,East,96,1.0,6.0,68,0.00,,,0.00,0.000000,,2013-02-15 07:52:00,
2013-02-15 01:01:00,29.0,20.0,-100.00,East,96,1.0,6.0,68,0.00,,,0.00,0.000000,,2013-02-15 08:01:00,
2013-02-15 01:11:00,29.0,20.0,-100.00,East,96,1.0,6.0,68,0.00,,,0.00,0.000000,,2013-02-15 08:11:00,
2013-02-15 01:42:00,29.0,19.0,-100.00,SW,218,3.0,5.0,67,0.00,,,0.00,0.000000,,2013-02-15 08:42:00,
2013-02-15 01:53:00,29.0,19.0,-100.00,SW,218,3.0,5.0,67,0.00,,,0.00,0.000000,,2013-02-15 08:53:00,
2013-02-15 02:01:00,29.0,19.0,-100.00,SW,218,3.0,5.0,67,0.00,,,0.00,0.000000,,2013-02-15 09:01:00,
2013-02-15 02:12:00,29.0,19.0,-100.00,SW,218,3.0,5.0,67,0.00,,,0.00,0.000000,,2013-02-15 09:12:00,
2013-02-15 02:42:00,29.0,20.0,-100.00,ESE,123,3.0,5.0,70,0.00,,,0.00,0.000000,,2013-02-15 09:42:00,
2013-02-15 02:52:00,29.0,20.0,-100.00,ESE,123,3.0,5.0,70,0.00,,,0.00,0.000000,,2013-02-15 09:52:00,
2013-02-15 03:01:00,29.0,20.0,-100.00,ESE,123,3.0,5.0,70,0.00,,,0.00,0.000000,,2013-02-15 10:01:00,
2013-02-15 03:11:00,29.0,20.0,-100.00,ESE,123,3.0,5.0,70,0.00,,,0.00,0.000000,,2013-02-15 10:11:00,
2013-02-15 03:42:00,29.0,20.0,-100.00,East,96,2.0,7.0,68,0.00,,,0.00,0.000000,,2013-02-15 10:42:00,
2013-02-15 03:52:00,29.0,20.0,-100.00,East,96,2.0,7.0,68,0.00,,,0.00,0.000000,,2013-02-15 10:52:00,
2013-02-15 04:01:00,29.0,20.0,-100.00,East,96,2.0,7.0,68,0.00,,,0.00,0.000000,,2013-02-15 11:01:00,
2013-02-15 04:11:00,29.0,20.0,-100.00,East,96,2.0,7.0,68,0.00,,,0.00,0.000000,,2013-02-15 11:11:00,
2013-02-15 04:42:00,28.0,20.0,-100.00,ESE,116,5.0,7.0,73,0.00,,,0.00,0.000000,,2013-02-15 11:42:00,
2013-02-15 04:52:00,28.0,20.0,-100.00,ESE,116,5.0,7.0,73,0.00,,,0.00,0.000000,,2013-02-15 11:52:00,
2013-02-15 05:01:00,28.0,20.0,-100.00,ESE,116,5.0,7.0,73,0.00,,,0.00,0.000000,,2013-02-15 12:01:00,
2013-02-15 05:11:00,28.0,20.0,-100.00,ESE,116,5.0,7.0,73,0.00,,,0.00,0.000000,,2013-02-15 12:11:00,
2013-02-15 05:42:00,29.0,21.0,-100.00,ESE,108,5.0,6.0,72,0.00,,,0.00,0.000000,,2013-02-15 12:42:00,
2013-02-15 05:52:00,29.0,21.0,-100.00,ESE,108,5.0,6.0,72,0.00,,,0.00,0.000000,,2013-02-15 12:52:00,
2013-02-15 06:02:00,29.0,21.0,-100.00,ESE,108,5.0,6.0,72,0.00,,,0.00,0.000000,,2013-02-15 13:02:00,
2013-02-15 06:11:00,29.0,21.0,-100.00,ESE,108,5.0,6.0,72,0.00,,,0.00,0.000000,,2013-02-15 13:11:00,
2013-02-15 06:42:00,28.0,20.0,-100.00,ESE,117,4.0,6.0,72,0.00,,,0.00,0.000000,,2013-02-15 13:42:00,
2013-02-15 06:52:00,28.0,20.0,-100.00,ESE,117,4.0,6.0,72,0.00,,,0.00,0.000000,,2013-02-15 13:52:00,
2013-02-15 07:01:00,28.0,20.0,-100.00,ESE,117,4.0,6.0,72,0.00,,,0.00,0.000000,,2013-02-15 14:01:00,
2013-02-15 07:11:00,28.0,20.0,-100.00,ESE,117,4.0,6.0,72,0.00,,,0.00,0.000000,,2013-02-15 14:11:00,
2013-02-15 07:42:00,29.0,20.0,-100.00,SE,128,6.0,7.0,70,0.00,,,0.00,0.000000,,2013-02-15 14:42:00,
2013-02-15 07:52:00,29.0,20.0,-100.00,SE,128,6.0,7.0,70,0.00,,,0.00,0.000000,,2013-02-15 14:52:00,
2013-02-15 08:01:00,29.0,20.0,-100.00,SE,128,6.0,7.0,70,0.00,,,0.00,0.000000,,2013-02-15 15:01:00,
2013-02-15 08:11:00,29.0,20.0,-100.00,SE,128,6.0,7.0,70,0.00,,,0.00,0.000000,,2013-02-15 15:11:00,
2013-02-15 08:42:00,30.0,21.0,-100.00,SE,134,6.0,8.0,69,0.00,,,0.00,12.000000,,2013-02-15 15:42:00,
2013-02-15 08:52:00,30.0,21.0,-100.00,SE,134,6.0,8.0,69,0.00,,,0.00,12.000000,,2013-02-15 15:52:00,
2013-02-15 09:01:00,30.0,21.0,-100.00,SE,134,6.0,8.0,69,0.00,,,0.00,12.000000,,2013-02-15 16:01:00,
2013-02-15 09:11:00,30.0,21.0,-100.00,SE,134,6.0,8.0,69,0.00,,,0.00,12.000000,,2013-02-15 16:11:00,
2013-02-15 09:43:00,31.0,21.0,-100.00,South,181,3.0,7.0,67,0.00,,,-99.99,66.000000,,2013-02-15 16:43:00,
2013-02-15 09:52:00,31.0,21.0,-100.00,South,181,3.0,7.0,67,0.00,,,-99.99,66.000000,,2013-02-15 16:52:00,
2013-02-15 10:01:00,31.0,21.0,-100.00,South,181,3.0,7.0,67,0.00,,,-99.99,66.000000,,2013-02-15 17:01:00,
2013-02-15 10:11:00,31.0,21.0,-100.00,South,181,3.0,7.0,67,0.00,,,-99.99,66.000000,,2013-02-15 17:11:00,
2013-02-15 10:32:00,31.0,20.0,-100.00,South,175,8.0,11.0,62,0.00,,,0.00,160.000000,,2013-02-15 17:32:00,
2013-02-15 10:42:00,31.0,20.0,-100.00,South,175,8.0,11.0,62,0.00,,,0.00,160.000000,,2013-02-15 17:42:00,
2013-02-15 10:52:00,31.0,20.0,-100.00,South,175,8.0,11.0,62,0.00,,,0.00,160.000000,,2013-02-15 17:52:00,
2013-02-15 11:01:00,31.0,20.0,-100.00,South,175,8.0,11.0,62,0.00,,,0.00,160.000000,,2013-02-15 18:01:00,
2013-02-15 11:11:00,31.0,20.0,-100.00,South,175,8.0,11.0,62,0.00,,,0.00,160.000000,,2013-02-15 18:11:00,
2013-02-15 11:42:00,35.0,23.0,-100.00,South,175,7.0,10.0,60,0.00,,,-99.99,336.000000,,2013-02-15 18:42:00,
2013-02-15 11:52:00,35.0,23.0,-100.00,South,175,7.0,10.0,60,0.00,,,-99.99,336.000000,,2013-02-15 18:52:00,
2013-02-15 12:01:00,35.0,23.0,-100.00,South,175,7.0,10.0,60,0.00,,,-99.99,336.000000,,2013-02-15 19:01:00,
2013-02-15 12:11:00,35.0,23.0,-100.00,South,175,7.0,10.0,60,0.00,,,-99.99,336.000000,,2013-02-15 19:11:00,
2013-02-15 12:42:00,40.0,23.0,-100.00,SSE,167,7.0,11.0,50,0.00,,,0.00,535.000000,,2013-02-15 19:42:00,
2013-02-15 12:52:00,40.0,23.0,-100.00,SSE,167,7.0,11.0,50,0.00,,,0.00,535.000000,,2013-02-15 19:52:00,
2013-02-15 13:01:00,40.0,23.0,-100.00,SSE,167,7.0,11.0,50,0.00,,,0.00,535.000000,,2013-02-15 20:01:00,
2013-02-15 13:11:00,40.0,23.0,-100.00,SSE,167,7.0,11.0,50,0.00,,,0.00,535.000000,,2013-02-15 20:11:00,
2013-02-15 13:42:00,42.0,24.0,-100.00,South,179,6.0,9.0,48,0.00,,,0.00,655.000000,,2013-02-15 20:42:00,
2013-02-15 13:52:00,42.0,24.0,-100.00,South,179,6.0,9.0,48,0.00,,,0.00,655.000000,,2013-02-15 20:52:00,
2013-02-15 14:01:00,42.0,24.0,-100.00,South,179,6.0,9.0,48,0.00,,,0.00,655.000000,,2013-02-15 21:01:00,
2013-02-15 14:11:00,42.0,24.0,-100.00,South,179,6.0,9.0,48,0.00,,,0.00,655.000000,,2013-02-15 21:11:00,
2013-02-15 14:42:00,43.0,24.0,-100.00,South,190,7.0,10.0,47,0.00,,,0.00,628.000000,,2013-02-15 21:42:00,
2013-02-15 14:52:00,43.0,24.0,-100.00,South,190,7.0,10.0,47,0.00,,,0.00,628.000000,,2013-02-15 21:52:00,
2013-02-15 15:02:00,43.0,24.0,-100.00,South,190,7.0,10.0,47,0.00,,,0.00,628.000000,,2013-02-15 22:02:00,
2013-02-15 15:11:00,43.0,24.0,-100.00,South,190,7.0,10.0,47,0.00,,,0.00,628.000000,,2013-02-15 22:11:00,
2013-02-15 15:42:00,43.0,25.0,-100.00,South,186,8.0,10.0,49,0.00,,,0.00,495.000000,,2013-02-15 22:42:00,
2013-02-15 15:52:00,43.0,25.0,-100.00,South,186,8.0,10.0,49,0.00,,,0.00,495.000000,,2013-02-15 22:52:00,
2013-02-15 16:02:00,43.0,25.0,-100.00,South,186,8.0,10.0,49,0.00,,,0.00,495.000000,,2013-02-15 23:02:00,
2013-02-15 16:11:00,43.0,25.0,-100.00,South,186,8.0,10.0,49,0.00,,,0.00,495.000000,,2013-02-15 23:11:00,
2013-02-15 16:32:00,44.0,25.0,-100.00,South,179,6.0,10.0,47,0.00,,,0.00,160.000000,,2013-02-15 23:32:00,
2013-02-15 16:42:00,44.0,25.0,-100.00,South,179,6.0,10.0,47,0.00,,,0.00,160.000000,,2013-02-15 23:42:00,
2013-02-15 16:52:00,44.0,25.0,-100.00,South,179,6.0,10.0,47,0.00,,,0.00,160.000000,,2013-02-15 23:52:00,
2013-02-15 17:02:00,44.0,25.0,-100.00,South,179,6.0,10.0,47,0.00,,,0.00,160.000000,,2013-02-16 00:02:00,
2013-02-15 17:11:00,44.0,25.0,-100.00,South,179,6.0,10.0,47,0.00,,,0.00,160.000000,,2013-02-16 00:11:00,
2013-02-15 17:42:00,42.0,24.0,-100.00,SSE,159,4.0,7.0,48,0.00,,,0.00,173.000000,,2013-02-16 00:42:00,
2013-02-15 17:52:00,42.0,24.0,-100.00,SSE,159,4.0,7.0,48,0.00,,,0.00,173.000000,,2013-02-16 00:52:00,
2013-02-15 18:02:00,42.0,24.0,-100.00,SSE,159,4.0,7.0,48,0.00,,,0.00,173.000000,,2013-02-16 01:02:00,
2013-02-15 18:11:00,42.0,24.0,-100.00,SSE,159,4.0,7.0,48,0.00,,,0.00,173.000000,,2013-02-16 01:11:00,
2013-02-15 18:42:00,36.0,23.0,-100.00,SE,128,6.0,8.0,58,0.00,,,0.00,31.000000,,2013-02-16 01:42:00,
2013-02-15 18:52:00,36.0,23.0,-100.00,SE,128,6.0,8.0,58,0.00,,,0.00,31.000000,,2013-02-16 01:52:00,
2013-02-15 19:01:00,36.0,23.0,-100.00,SE,128,6.0,8.0,58,0.00,,,0.00,31.000000,,2013-02-16 02:01:00,
2013-02-15 19:11:00,36.0,23.0,-100.00,SE,128,6.0,8.0,58,0.00,,,0.00,31.000000,,2013-02-16 02:11:00,
2013-02-15 19:42:00,33.0,22.0,-100.00,ESE,117,9.0,12.0,63,0.00,,,0.00,0.000000,,2013-02-16 02:42:00,
2013-02-15 19:52:00,33.0,22.0,-100.00,ESE,117,9.0,12.0,63,0.00,,,0.00,0.000000,,2013-02-16 02:52:00,
2013-02-15 20:01:00,33.0,22.0,-100.00,ESE,117,9.0,12.0,63,0.00,,,0.00,0.000000,,2013-02-16 03:01:00,
2013-02-15 20:11:00,33.0,22.0,-100.00,ESE,117,9.0,12.0,63,0.00,,,0.00,0.000000,,2013-02-16 03:11:00,
2013-02-15 20:42:00,34.0,23.0,-100.00,SE,128,8.0,11.0,63,0.00,,,0.00,0.000000,,2013-02-16 03:42:00,
2013-02-15 20:52:00,34.0,23.0,-100.00,SE,128,8.0,11.0,63,0.00,,,0.00,0.000000,,2013-02-16 03:52:00,
2013-02-15 21:01:00,34.0,23.0,-100.00,SE,128,8.0,11.0,63,0.00,,,0.00,0.000000,,2013-02-16 04:01:00,
2013-02-15 21:11:00,34.0,23.0,-100.00,SE,128,8.0,11.0,63,0.00,,,0.00,0.000000,,2013-02-16 04:11:00,
2013-02-15 21:42:00,31.0,21.0,-100.00,ESE,117,5.0,9.0,65,0.00,,,0.00,0.000000,,2013-02-16 04:42:00,
2013-02-15 21:52:00,31.0,21.0,-100.00,ESE,117,5.0,9.0,65,0.00,,,0.00,0.000000,,2013-02-16 04:52:00,
2013-02-15 22:01:00,31.0,21.0,-100.00,ESE,117,5.0,9.0,65,0.00,,,0.00,0.000000,,2013-02-16 05:01:00,
2013-02-15 22:11:00,31.0,21.0,-100.00,ESE,117,5.0,9.0,65,0.00,,,0.00,0.000000,,2013-02-16 05:11:00,
2013-02-15 22:42:00,28.0,20.0,-100.00,NNE,29,2.0,9.0,72,0.00,,,0.00,0.000000,,2013-02-16 05:42:00,
2013-02-15 22:52:00,28.0,20.0,-100.00,NNE,29,2.0,9.0,72,0.00,,,0.00,0.000000,,2013-02-16 05:52:00,
2013-02-15 23:01:00,28.0,20.0,-100.00,NNE,29,2.0,9.0,72,0.00,,,0.00,0.000000,,2013-02-16 06:01:00,
2013-02-15 23:11:00,28.0,20.0,-100.00,NNE,29,2.0,9.0,72,0.00,,,0.00,0.000000,,2013-02-16 06:11:00,
2013-02-15 23:42:00,29.0,21.0,-100.00,SE,139,6.0,9.0,73,0.00,,,0.00,0.000000,,2013-02-16 06:42:00,
2013-02-15 23:52:00,29.0,21.0,-100.00,SE,139,6.0,9.0,73,0.00,,,0.00,0.000000,,2013-02-16 06:52:00,